CAPE
38 0 0 0 23 55 36 27 1 1 1 2 2 0 0 0 2 7 37 113 195 177 207 626 528 334 590 264 18 35 60 53 17 0 0 0 4 330 235 95 333 513 748
0 0 0 0 6 69 70 38 18 2 0 0 0 0 0 0 20 18 46 128 228 419 401 692 685 545 215 495 202 360 238 317 0 0 0 14 12 43 341 304 53 478 570
0 0 3 0 11 47 91 52 31 10 0 0 0 0 0 0 0 0 144 180 423 541 697 609 385 9 0 432 469 513 281 5 1 0 0 0 14 0 57 271 208 208 714
0 0 25 26 29 30 63 39 11 0 0 0 0 0 5 15 2 6 135 81 453 494 541 861 114 0 29 509 791 726 402 89 274 0 0 0 0 55 284 115 324 93 180
0 0 0 0 44 16 24 16 0 0 11 6 8 0 0 0 0 0 17 5 61 627 440 800 653 260 375 436 870 815 941 468 555 215 29 10 53 105 210 371 284 114 21
1 20 24 18 39 24 46 0 0 0 0 5 17 6 0 0 0 19 128 91 192 397 357 612 808 316 452 1066 975 894 644 961 773 573 23 13 407 245 186 189 218 312 312
0 30 52 65 65 78 54 22 0 0 0 0 0 7 0 0 0 40 159 176 186 303 694 396 774 1071 826 1183 1010 1071 801 1085 800 727 465 268 325 349 430 441 447 378 237
0 47 63 101 134 149 117 77 0 0 0 0 0 0 6 5 3 0 197 190 132 244 435 806 607 850 1163 1268 1100 907 859 988 963 1063 920 773 535 366 555 524 699 764 401
0 69 101 115 162 170 147 80 28 9 0 0 0 0 0 19 11 13 27 66 32 35 78 544 715 888 1149 946 1303 1110 1144 1228 984 1000 1096 963 1006 699 633 481 636 940 903
0 62 172 185 207 253 161 162 79 42 3 0 0 0 0 15 91 83 85 123 139 14 12 32 490 869 1147 1161 1091 989 1124 1056 955 835 1231 1095 1275 1153 652 496 402 560 483
4 12 244 286 267 294 222 220 176 100 29 13 4 0 0 68 160 195 140 158 286 254 211 424 413 530 819 952 1037 1224 1149 1122 867 633 922 1205 928 1146 770 751 459 594 293
0 0 123 400 363 315 250 226 238 180 89 51 42 25 32 80 166 286 318 237 245 373 655 747 453 318 482 497 647 1121 1479 1134 1087 1058 1041 736 613 1125 964 1120 844 679 219
0 29 96 371 443 361 297 229 249 192 106 26 0 47 29 90 172 277 301 362 557 654 860 680 583 464 376 62 12 641 1191 1195 912 943 1053 1148 614 872 957 796 949 827 856
14 106 106 152 473 456 362 353 365 260 159 67 0 0 72 66 124 247 242 299 369 506 564 658 680 546 495 356 281 484 875 1068 1104 1084 1037 1165 1222 1251 1103 1120 1172 910 849
34 63 230 114 220 379 336 646 515 428 317 191 65 0 0 81 135 193 230 332 389 455 478 562 722 766 462 406 721 1086 972 1130 1201 1185 1129 1189 1158 844 1100 1355 1473 1075 1032
3 16 42 252 154 203 248 532 620 585 437 345 214 88 62 127 138 199 289 478 578 676 619 650 758 835 916 809 528 751 1082 1124 1165 1172 1234 1128 726 815 715 514 479 1004 1241
6 0 1 46 81 319 143 203 446 534 430 420 393 272 96 108 162 253 419 580 764 895 860 859 840 875 843 711 648 441 1211 1238 1176 1266 1357 1310 1201 962 1268 942 321 33 116
0 3 0 0 15 30 490 248 216 406 427 445 383 361 364 336 252 381 489 567 829 1033 965 540 710 770 821 370 159 74 643 922 1030 1061 1016 902 890 858 1075 1094 1043 1023 848
0 1 3 0 6 7 16 551 312 407 472 549 504 404 482 607 383 299 543 854 753 759 951 652 264 138 397 333 141 0 254 620 801 622 534 533 561 397 155 456 791 922 883
0 7 35 5 4 0 0 5 639 533 797 741 674 595 718 598 813 768 598 788 830 997 854 485 349 257 495 95 56 1 170 294 708 518 371 70 108 102 1 113 611 624 752
0 24 105 95 65 0 0 0 0 152 793 862 948 1008 979 1163 920 1199 1278 758 687 408 426 533 497 217 199 177 1 1 378 745 482 283 274 127 1 1 1 1 265 377 154
0 3 38 46 67 7 0 0 0 0 27 312 1231 1227 1129 1274 1362 1276 1028 707 603 695 565 433 221 161 148 31 1 1 6 12 177 23 29 5 1 1 1 1 1 1 1
0 0 0 3 20 7 0 0 0 0 28 71 51 166 1297 1335 1171 951 797 841 705 769 594 461 363 226 1 2 0 0 0 0 1 1 2 1 1 1 1 1 0 1 2
0 0 0 0 15 0 0 0 0 0 0 0 3 0 349 1049 1080 1031 872 881 649 479 449 323 268 227 58 1 2 1 1 1 0 1 1 0 0 0 0 0 0 0 0
0 0 0 0 0 0 0 0 0 0 0 0 0 0 228 718 889 442 310 478 304 367 280 161 125 5 1 0 0 0 3 1 0 2 2 2 1 0 0 0 0 1 0
0 0 0 0 0 0 0 0 0 0 0 0 0 0 181 689 119 0 1 1 2 2 2 0 0 1 1 1 1 0 1 1 1 3 3 2 1 1 0 0 0 0 0
CIN
-220 0 0 0 -292 -277 -183 -155 0 0 0 0 0 0 0 0 -184 -191 -150 -149 -145 -169 -171 -136 -166 -213 -177 -242 -360 -354 -293 -212 -289 0 0 0 -252 -168 -191 -215 -141 -115 -76
0 0 0 0 -66 -269 -231 -160 -138 -21 0 0 0 0 0 0 -122 -154 -166 -148 -143 -143 -135 -126 -150 -160 -230 -188 -229 -160 -174 -143 0 0 0 -129 -103 -280 -173 -186 -192 -139 -124
0 0 -139 0 -413 -353 -252 -184 -179 -174 0 0 0 0 0 0 0 0 -136 -161 -148 -140 -129 -140 -182 -220 0 -198 -166 -158 -164 -67 -43 0 0 0 -58 0 -293 -207 -226 -208 -124
0 0 -423 -440 -421 -441 -356 -251 -232 -21 0 0 0 -65 -168 -138 -204 -244 -169 -186 -137 -142 -141 -127 -261 0 -271 -194 -149 -160 -180 -174 -174 -5 0 0 0 -232 -132 -271 -207 -267 -248
0 0 0 0 -396 -423 -356 -344 0 0 -228 -230 -217 0 0 0 0 0 -193 -266 -217 -129 -144 -135 -142 -208 -196 -181 -142 -151 -124 -165 -148 -216 -282 -375 -311 -253 -194 -122 -170 -258 -375
-66 -498 -496 -440 -409 -395 -358 -1 0 0 0 -177 -243 -214 0 0 0 -223 -179 -201 -180 -158 -167 -147 -131 -188 -175 -118 -130 -135 -140 -118 -129 -169 -49 -311 -137 -162 -199 -189 -177 -154 -178
0 -498 -488 -461 -461 -408 -387 -385 0 0 0 0 0 -242 -20 0 0 -224 -177 -176 -188 -194 -147 -192 -146 -122 -148 -115 -127 -121 -124 -101 -115 -137 -159 -201 -160 -165 -163 -150 -152 -167 -195
0 -528 -509 -435 -434 -425 -386 -365 0 0 0 0 0 0 -223 -304 -313 0 -188 -169 -236 -204 -180 -155 -162 -135 -119 -113 -126 -127 -120 -101 -104 -89 -107 -119 -148 -165 -129 -126 -110 -111 -173
0 -585 -547 -480 -435 -417 -450 -407 -415 -390 0 0 0 0 0 -230 -273 -300 -284 -280 -325 -340 -254 -185 -160 -137 -117 -149 -110 -113 -93 -89 -92 -92 -94 -107 -104 -123 -124 -134 -109 -81 -57
0 -639 -574 -515 -479 -421 -431 -413 -409 -404 -223 0 0 0 0 -227 -200 -241 -253 -246 -257 -389 -344 -314 -200 -148 -127 -132 -138 -126 -107 -99 -100 -94 -71 -99 -90 -95 -126 -130 -137 -119 -106
-628 -642 -599 -556 -531 -505 -491 -434 -386 -397 -406 -400 -189 0 0 -258 -182 -208 -238 -259 -224 -218 -213 -181 -208 -195 -160 -152 -138 -111 -106 -94 -109 -125 -85 -67 -85 -74 -114 -90 -121 -100 -133
0 -37 -635 -599 -574 -537 -529 -506 -435 -434 -420 -408 -398 -403 -376 -291 -229 -184 -212 -237 -263 -212 -158 -139 -181 -217 -199 -202 -174 -113 -84 -104 -87 -90 -74 -94 -79 -65 -89 -70 -76 -87 -144
0 -739 -665 -629 -622 -578 -554 -550 -510 -499 -491 -520 0 -413 -422 -340 -281 -242 -239 -212 -174 -173 -136 -159 -160 -175 -202 -310 -327 -175 -101 -92 -115 -100 -65 -56 -90 -78 -69 -73 -59 -66 -59
-972 -836 -761 -706 -575 -608 -596 -561 -480 -486 -482 -517 0 0 -406 -418 -342 -283 -275 -253 -224 -190 -181 -166 -157 -161 -173 -197 -213 -171 -121 -98 -88 -79 -72 -59 -52 -52 -61 -56 -54 -52 -53
-902 -904 -730 -748 -693 -598 -549 -473 -492 -487 -429 -423 -480 0 0 -409 -346 -326 -320 -279 -250 -210 -207 -194 -166 -152 -156 -126 -123 -99 -105 -84 -75 -75 -68 -63 -71 -78 -57 -30 -36 -45 -38
-789 -846 -841 -744 -726 -691 -630 -536 -456 -450 -453 -406 -399 -407 -411 -356 -340 -312 -307 -257 -224 -190 -185 -177 -175 -148 -102 -120 -121 -120 -79 -73 -64 -63 -71 -79 -107 -95 -96 -127 -127 -62 -33
-687 0 -581 -757 -780 -671 -713 -667 -505 -438 -437 -406 -373 -356 -384 -391 -336 -289 -245 -233 -198 -150 -151 -144 -132 -123 -126 -117 -136 -164 -84 -69 -67 -59 -51 -54 -49 -81 -59 -84 -156 -270 -213
0 -677 0 0 -739 -798 -562 -604 -617 -459 -422 -402 -379 -355 -335 -325 -295 -258 -241 -245 -187 -152 -131 -170 -155 -142 -133 -172 -203 -231 -128 -90 -89 -83 -81 -78 -75 -83 -68 -68 -70 -69 -85
0 -224 -660 0 -725 -696 -752 -466 -480 -418 -375 -371 -370 -376 -332 -302 -303 -290 -252 -209 -194 -167 -158 -187 -260 -303 -225 -215 -250 0 -161 -120 -120 -140 -131 -117 -115 -156 -189 -92 -56 -72 -82
0 -433 -449 -491 -580 0 0 -750 -351 -357 -308 -315 -338 -329 -336 -309 -259 -265 -248 -188 -163 -169 -169 -224 -289 -252 -145 -198 -294 0 -147 -141 -98 -115 -139 -252 -213 -215 0 -221 -56 -46 -62
0 -413 -300 -307 -370 0 0 0 0 -430 -281 -257 -274 -258 -266 -236 -240 -214 -171 -205 -192 -225 -207 -177 -211 -254 -200 -194 0 0 -115 -79 -87 -120 -121 -181 0 0 0 0 -116 -80 -146
0 -125 -290 -339 -333 -403 0 0 0 -143 -662 -411 -163 -206 -233 -253 -212 -170 -198 -199 -239 -176 -184 -184 -217 -249 -205 -201 0 0 -11 -87 -107 -208 -225 -171 0 0 0 0 0 0 0
0 0 0 -295 -381 -444 0 0 0 0 -621 -567 -559 -469 -180 -188 -269 -211 -212 -183 -166 -163 -157 -172 -155 -186 0 0 0 0 0 0 0 0 0 0 0 0 0 0 0 0 0
0 0 0 0 -225 0 0 0 0 0 0 -38 -560 0 -335 -148 -263 -214 -212 -172 -169 -200 -204 -191 -175 -140 -131 0 0 0 0 0 0 0 0 0 0 0 0 0 0 0 0
0 0 0 0 0 0 0 0 0 0 0 0 0 0 -372 -225 -177 -200 -144 -252 -119 -292 -300 -255 -252 -66 0 0 0 0 0 0 0 0 0 0 0 0 0 0 0 0 0
0 0 0 0 0 0 0 0 0 0 0 0 0 0 -276 -144 -272 0 0 0 0 0 0 0 0 0 0 0 0 0 0 0 0 0 0 0 0 0 0 0 0 0 0
Wind_Speed
9 10 11 10 10 9 9 9 9 8 7 4 3 2 2 2 3 3 5 4 3 4 3 3 2 3 2 2 3 2 2 1 0 2 2 2 4 2 2 1 0 3 4
8 9 11 11 12 12 11 10 9 9 7 5 3 3 3 2 2 2 4 5 4 5 5 3 3 3 3 3 3 2 1 1 2 1 1 2 2 2 0 2 1 3 3
7 9 12 13 12 11 12 11 10 10 8 7 4 2 3 2 1 3 2 4 4 4 5 4 3 4 3 3 3 3 3 2 2 3 3 2 2 2 2 2 2 3 2
7 10 13 12 13 11 10 10 10 10 8 9 7 4 4 4 3 3 2 3 4 4 5 4 4 4 3 3 3 3 2 3 2 0 1 0 2 1 2 0 2 2 4
10 11 12 13 11 11 11 10 10 9 9 9 8 5 3 3 2 2 3 3 1 2 3 4 3 3 2 2 3 3 2 2 2 2 2 1 2 1 1 1 2 1 4
11 10 9 9 10 9 9 10 11 10 9 9 8 8 7 5 2 2 3 3 2 3 3 4 4 3 2 3 2 1 1 2 2 2 1 1 1 1 1 0 2 2 2
10 11 13 12 12 12 12 11 12 10 11 11 10 9 7 6 7 5 3 4 2 2 5 5 4 3 4 4 3 2 2 2 2 2 2 1 1 1 1 1 1 2 2
10 13 15 14 14 16 14 14 13 12 11 12 11 9 8 5 4 5 3 3 3 3 3 4 4 5 4 3 3 1 2 2 2 4 3 1 3 3 2 2 2 1 1
7 11 12 14 14 15 16 15 15 13 13 13 10 10 9 8 7 6 3 3 3 3 4 5 5 4 4 5 3 3 4 2 2 3 4 3 2 3 3 2 2 1 1
8 10 13 15 13 13 13 13 13 16 13 13 11 10 10 9 8 5 6 6 3 3 4 5 4 4 4 4 4 3 3 3 2 2 3 3 1 2 2 2 2 1 1
7 10 13 15 14 12 14 15 13 13 12 12 11 10 10 10 8 7 6 6 5 5 5 4 5 4 4 4 4 4 4 4 3 3 3 4 3 2 3 2 2 2 2
7 6 10 13 13 14 14 16 13 13 13 12 12 11 10 11 10 9 8 6 6 5 6 5 4 5 5 4 5 6 4 5 5 5 3 5 2 4 3 2 4 3 3
8 6 7 12 14 14 13 15 14 14 13 12 11 11 10 12 13 12 10 9 8 7 6 5 5 6 6 5 6 6 6 6 6 5 4 4 3 4 3 4 4 3 3
10 3 3 7 7 10 13 13 13 12 12 13 14 13 13 13 13 11 10 11 10 9 8 7 7 7 6 7 7 7 6 6 6 6 6 6 6 6 5 5 5 4 4
15 13 6 3 5 7 5 7 10 12 12 12 13 14 12 11 11 10 11 11 10 10 9 8 7 7 6 6 7 7 7 7 7 7 7 7 8 10 8 5 5 5 5
15 14 12 10 4 6 7 9 10 12 11 12 12 9 9 10 10 10 10 9 9 9 8 8 8 8 7 10 13 10 8 7 8 8 8 7 9 9 12 12 11 8 6
13 11 10 9 9 7 6 11 11 9 10 11 9 10 9 10 11 9 9 10 9 8 9 8 6 7 7 10 14 14 8 8 8 8 7 7 7 7 7 9 11 11 12
13 12 9 10 7 6 8 4 7 11 11 12 10 10 11 10 7 8 9 8 7 10 8 8 8 6 4 11 14 14 9 8 9 8 7 7 8 8 8 7 7 8 8
10 10 9 9 7 7 7 8 4 8 10 13 14 13 13 12 10 11 11 9 10 9 9 9 9 6 5 7 14 9 8 8 9 6 7 8 8 8 8 7 9 8 7
9 10 11 8 9 7 6 8 4 5 10 11 13 12 12 13 13 14 12 9 9 10 8 8 8 12 11 8 8 11 6 7 5 4 5 7 8 7 5 7 7 7 7
9 8 7 8 10 9 2 6 5 6 6 6 6 8 12 14 15 13 10 11 9 6 8 8 7 6 8 6 7 12 5 4 3 3 4 5 6 6 6 8 6 6 3
5 7 7 8 9 7 5 5 8 8 6 4 5 9 12 11 9 11 10 9 9 9 9 7 5 4 5 7 8 7 5 5 4 3 4 2 4 4 2 4 6 8 6
10 4 7 9 8 7 4 8 7 6 5 5 6 7 7 9 9 10 9 8 9 9 8 7 6 5 4 3 5 4 6 4 2 2 2 8 7 8 7 6 6 5 3
14 6 5 8 8 6 7 10 9 7 3 5 9 9 7 7 6 6 8 9 9 9 9 8 9 7 6 5 4 4 4 4 3 4 4 4 6 7 6 3 4 2 2
15 8 8 10 9 6 9 11 10 7 7 7 8 10 7 6 6 4 4 7 6 9 11 8 8 9 7 8 9 9 6 6 5 6 4 3 3 3 3 2 3 3 2
14 11 12 11 10 7 8 10 11 10 10 10 9 8 8 8 6 7 5 14 6 3 11 8 7 3 4 11 13 11 10 10 12 3 4 3 4 4 4 3 3 2 3
Wind_Direction
206 185 178 168 153 155 160 161 150 154 148 153 148 158 189 174 221 222 229 222 242 238 227 245 146 178 179 185 161 119 142 87 219 353 5 12 38 78 88 89 202 224 218
174 167 163 166 170 166 169 161 165 161 163 163 152 150 148 184 213 213 220 226 220 216 199 207 190 200 152 158 166 179 141 96 187 142 47 15 339 352 75 123 350 263 236
178 165 170 175 165 171 169 170 164 163 164 161 138 106 98 104 189 224 222 225 203 182 177 193 188 184 151 177 171 186 156 144 233 218 138 123 231 326 321 284 246 278 236
180 180 180 176 178 178 165 162 157 161 169 163 168 171 167 164 202 194 181 194 182 173 167 179 194 182 159 176 183 161 177 136 213 103 118 57 128 179 337 310 277 250 259
183 195 186 183 178 166 170 155 152 167 166 177 176 172 161 217 171 170 171 178 162 219 185 185 186 201 167 205 212 171 176 143 177 170 181 121 84 69 105 316 356 276 255
193 185 176 174 175 161 156 154 163 175 164 175 182 185 179 189 215 194 185 190 193 196 208 186 184 210 211 233 239 217 199 170 236 160 178 170 119 186 139 55 270 265 273
185 176 176 174 163 167 169 167 174 183 173 178 188 192 188 192 199 214 191 185 192 213 206 189 189 199 208 216 204 210 225 204 242 223 191 206 236 174 121 162 215 245 267
183 183 182 186 181 176 172 176 179 183 184 183 189 194 189 191 208 207 206 219 208 211 190 201 192 214 219 228 216 229 236 208 246 268 239 205 211 194 189 232 192 193 278
189 182 182 190 190 185 177 180 179 187 190 192 183 186 190 188 208 204 199 231 224 226 226 209 198 221 216 210 197 220 240 204 239 267 270 217 225 234 207 229 267 190 287
185 177 186 192 195 186 182 180 187 191 191 193 193 186 188 192 207 184 197 218 234 234 232 218 217 214 219 216 195 222 220 227 232 252 256 239 204 247 245 199 219 215 235
210 191 194 193 192 183 179 179 185 182 186 190 196 191 185 186 202 203 199 205 192 207 225 226 222 224 226 197 218 224 231 228 253 252 233 263 284 233 197 244 217 235 200
257 245 198 185 187 186 180 183 185 181 185 194 190 196 190 183 194 209 194 202 209 203 214 208 226 220 230 198 216 226 218 219 227 240 238 259 255 253 248 227 235 251 241
307 205 191 196 184 187 188 186 182 188 182 176 193 196 191 192 202 203 198 190 212 205 210 198 214 218 225 206 217 228 226 218 219 227 233 251 233 249 222 223 231 229 223
350 316 193 193 216 195 189 186 186 181 188 181 186 198 203 203 204 201 202 195 203 209 208 211 210 212 222 212 210 217 224 232 230 223 223 234 219 236 246 237 232 227 222
1 5 353 220 204 199 187 197 189 178 183 192 189 200 202 206 208 201 202 205 197 214 213 211 211 209 210 226 219 216 219 221 232 237 228 235 224 213 219 228 228 221 226
359 352 356 5 307 208 178 196 194 197 181 189 209 197 190 194 202 206 206 207 201 206 203 213 211 211 220 216 214 209 218 222 225 239 245 235 233 232 225 225 225 201 210
344 345 344 342 337 320 221 201 196 178 187 198 188 192 201 196 203 201 194 207 205 185 201 211 209 222 232 224 219 218 221 220 226 226 227 245 254 235 249 236 223 221 220
332 331 322 325 318 324 325 266 180 186 192 197 189 186 194 206 200 204 201 199 200 197 189 175 181 187 220 244 249 231 217 221 227 228 230 227 239 237 238 253 256 234 218
306 303 307 301 308 320 328 326 225 186 195 205 205 195 198 199 199 219 215 203 201 203 193 193 183 177 239 224 231 232 227 229 235 228 229 233 244 244 217 233 250 254 236
293 299 310 309 300 302 337 320 350 232 213 205 215 207 195 207 204 207 215 214 207 206 195 200 182 180 213 225 216 205 211 212 226 243 262 244 254 263 243 230 236 244 246
282 285 287 293 298 291 337 307 309 277 253 234 227 206 195 197 209 207 207 197 186 200 201 203 191 187 180 178 205 209 196 191 206 231 265 278 258 265 256 219 227 226 156
229 269 268 269 268 275 260 259 269 260 269 256 255 212 212 198 192 199 194 202 172 179 184 178 170 153 150 167 192 174 190 171 208 218 232 240 154 130 138 166 148 132 133
297 246 239 267 281 276 250 255 254 262 263 278 256 262 253 210 171 185 191 177 189 178 174 167 172 167 156 166 161 192 206 205 201 232 233 135 138 125 86 85 124 141 150
285 282 254 239 259 240 245 253 256 257 247 249 263 257 231 224 164 182 180 173 184 184 171 173 174 172 179 185 178 184 178 174 180 135 120 128 114 94 110 98 63 73 123
283 277 265 273 251 244 221 235 245 236 245 241 239 248 258 223 173 151 174 183 199 188 167 181 169 169 188 201 180 173 183 183 167 135 132 126 123 136 136 110 103 99 110
274 273 273 266 258 253 242 226 213 213 230 238 238 232 231 231 170 153 113 46 49 95 88 121 154 138 114 153 162 170 162 146 151 142 165 158 170 183 177 164 136 123 133